Montpelier, VT

11:05 AM EST on February 20, 2018 (GMT -0500)
Knapp State

Weather History for KMPV - May, 2013

Change the Weather History Date:

Sunday, May 12, 2013

  Actual Average Record
Temperature  
Mean Temperature 51 °F 53 °F  
Max Temperature 60 °F 65 °F 82 °F (2004)
Min Temperature 41 °F 41 °F 26 °F (1966)
Degree Days  
Heating Degree Days 16 13  
Month to date heating degree days 171  
Since 1 July heating degree days 7875  
Cooling Degree Days 0 0  
Month to date cooling degree days 0 0  
Year to date cooling degree days 0 1  
Moisture  
Dew Point 38 °F    
Average Humidity 63    
Maximum Humidity 93    
Minimum Humidity 32    
Precipitation  
Precipitation T in 0.11 in 3.90 in (1981)
Month to date precipitation 0.20 1.24  
Year to date precipitation 5.28 10.78  
Sea Level Pressure  
Sea Level Pressure 29.71 in    
Wind  
Wind Speed 7 mph (West)    
Max Wind Speed 17 mph    
Max Gust Speed 25 mph    
Visibility 10 miles    
Events      
T = Trace of Precipitation, MM = Missing Value Source: NWS Daily Summary

Daily Weather History Graph

Daily Weather History Graph

Search for Another Location

Airport or City:

Trip Planner

Search our weather history database for the weather conditions in past years. The results will help you decide how hot, cold, wet, or windy it might be!

Date:

Astronomy

May. 12, 2013 Rise Set
Actual Time 5:26 AM EDT 8:07 PM EDT
Civil Twilight 4:53 AM EDT 8:40 PM EDT
Nautical Twilight 4:11 AM EDT 9:22 PM EDT
Astronomical Twilight 3:23 AM EDT 10:10 PM EDT
Moon 7:18 AM EDT (5/12) 10:33 PM EDT (5/12)
Length of Visible Light 15h 46m
Length of Day
14h 40m
Waxing Crescent, 6% of the Moon is Illuminated
May 12
Waxing Crescent
May 18
First Quarter
May 25
Full
May 31
Last Quarter
Jun 8
New

Hourly Weather History & Observations

Time (EDT) Temp. Windchill Dew Point Humidity Pressure Visibility Wind Dir Wind Speed Gust Speed Precip Events Conditions
12:51 AM 51.1 °F - 46.0 °F 83% 29.74 in 10.0 mi WNW 3.5 mph - N/A   Overcast
1:14 AM 51.8 °F - 46.4 °F 82% 29.73 in 10.0 mi Calm Calm - N/A   Overcast
1:51 AM 51.1 °F - 45.0 °F 80% 29.73 in 10.0 mi Calm Calm - N/A   Overcast
2:03 AM 51.8 °F - 44.6 °F 76% 29.72 in 10.0 mi Calm Calm - N/A   Overcast
2:36 AM 50.0 °F - 44.6 °F 82% 29.70 in 10.0 mi Calm Calm - N/A   Overcast
2:51 AM 50.0 °F - 45.0 °F 83% 29.71 in 10.0 mi Calm Calm - N/A   Overcast
3:10 AM 51.8 °F - 44.6 °F 76% 29.70 in 10.0 mi Calm Calm - N/A   Overcast
3:20 AM 50.0 °F - 44.6 °F 82% 29.70 in 10.0 mi Calm Calm - N/A   Overcast
3:51 AM 48.9 °F - 44.1 °F 83% 29.70 in 10.0 mi WNW 3.5 mph - N/A   Overcast
4:51 AM 48.0 °F - 44.1 °F 86% 29.69 in 10.0 mi Calm Calm - N/A   Overcast
5:16 AM 46.4 °F 45.2 °F 42.8 °F 87% 29.69 in 10.0 mi South 3.5 mph - N/A   Mostly Cloudy
5:38 AM 48.2 °F - 44.6 °F 87% 29.70 in 10.0 mi WSW 3.5 mph - N/A   Overcast
5:51 AM 48.0 °F - 45.0 °F 89% 29.70 in 10.0 mi ESE 5.8 mph - N/A   Overcast
6:51 AM 48.9 °F - 46.0 °F 90% 29.69 in 10.0 mi Calm Calm - N/A   Overcast
7:51 AM 53.1 °F - 46.0 °F 77% 29.70 in 10.0 mi SSE 5.8 mph - N/A   Mostly Cloudy
8:51 AM 54.0 °F - 43.0 °F 66% 29.67 in 10.0 mi Calm Calm - N/A   Partly Cloudy
9:51 AM 57.0 °F - 39.0 °F 51% 29.67 in 10.0 mi West 8.1 mph - N/A   Clear
10:51 AM 57.0 °F - 39.0 °F 51% 29.66 in 10.0 mi WNW 9.2 mph 16.1 mph N/A   Scattered Clouds
11:51 AM 55.9 °F - 37.9 °F 51% 29.65 in 10.0 mi WSW 10.4 mph 16.1 mph N/A   Overcast
12:51 PM 54.0 °F - 39.9 °F 59% 29.66 in 10.0 mi West 12.7 mph 18.4 mph N/A   Overcast
1:51 PM 55.0 °F - 43.0 °F 64% 29.66 in 10.0 mi West 8.1 mph 17.3 mph N/A   Overcast
2:51 PM 52.0 °F - 33.1 °F 49% 29.68 in 10.0 mi West 10.4 mph 23.0 mph N/A   Overcast
3:51 PM 54.0 °F - 33.1 °F 45% 29.68 in 10.0 mi WNW 4.6 mph - 0.00 in   Overcast
4:51 PM 53.1 °F - 30.9 °F 43% 29.69 in 10.0 mi West 10.4 mph - N/A   Scattered Clouds
5:51 PM 53.1 °F - 27.0 °F 37% 29.70 in 10.0 mi WNW 11.5 mph 20.7 mph N/A   Mostly Cloudy
6:51 PM 51.1 °F - 23.0 °F 33% 29.73 in 10.0 mi WNW 11.5 mph 17.3 mph N/A   Scattered Clouds
7:51 PM 48.0 °F - 21.9 °F 36% 29.75 in 10.0 mi West 5.8 mph 18.4 mph N/A   Mostly Cloudy
8:51 PM 45.0 °F 41.2 °F 24.1 °F 44% 29.77 in 10.0 mi SW 6.9 mph - N/A   Clear
9:51 PM 44.1 °F 40.8 °F 26.1 °F 49% 29.79 in 10.0 mi Variable 5.8 mph - N/A   Partly Cloudy
10:51 PM 42.1 °F 38.4 °F 25.0 °F 51% 29.81 in 10.0 mi WSW 5.8 mph - N/A   Clear
11:51 PM 41.0 °F 33.1 °F 27.0 °F 57% 29.80 in 10.0 mi SW 15.0 mph 24.2 mph N/A   Clear